owner,sensor,date,latitude,longitude,vertical_datum,wind_speed,wind_to_direction,wind_speed_of_gust,qcFlag 
ENP,ioos.station.NOAA.NDBC:WRBF1:1,2017-06-01T00:00:00Z,25.0720,-80.7350,1.0,3.1,90.0,-9999.0,'1111122,1111122,1111122' 
ENP,ioos.station.NOAA.NDBC:WRBF1:1,2017-06-01T03:00:00Z,25.0720,-80.7350,1.0,2.1,100.0,-9999.0,'1111122,1111122,1111122' 
ENP,ioos.station.NOAA.NDBC:WRBF1:1,2017-06-01T06:00:00Z,25.0720,-80.7350,1.0,2.6,90.0,-9999.0,'1111122,1111122,1111122' 
ENP,ioos.station.NOAA.NDBC:WRBF1:1,2017-06-01T07:00:00Z,25.0720,-80.7350,1.0,2.1,100.0,-9999.0,'1111122,1111122,1111122' 
ENP,ioos.station.NOAA.NDBC:WRBF1:1,2017-06-01T08:00:00Z,25.0720,-80.7350,1.0,2.1,100.0,-9999.0,'1111122,1111122,1111122' 
ENP,ioos.station.NOAA.NDBC:WRBF1:1,2017-06-01T10:00:00Z,25.0720,-80.7350,1.0,1.5,110.0,-9999.0,'1111122,1111122,1111122' 
ENP,ioos.station.NOAA.NDBC:WRBF1:1,2017-06-01T11:00:00Z,25.0720,-80.7350,1.0,1.5,110.0,-9999.0,'1111122,1111122,1111122' 
ENP,ioos.station.NOAA.NDBC:WRBF1:1,2017-06-01T12:00:00Z,25.0720,-80.7350,1.0,1.5,100.0,-9999.0,'1111122,1111122,1111122' 
ENP,ioos.station.NOAA.NDBC:WRBF1:1,2017-06-01T13:00:00Z,25.0720,-80.7350,1.0,2.6,90.0,-9999.0,'1111122,1111122,1111122' 
ENP,ioos.station.NOAA.NDBC:WRBF1:1,2017-06-01T14:00:00Z,25.0720,-80.7350,1.0,3.1,90.0,-9999.0,'1111122,1111122,1111122' 
ENP,ioos.station.NOAA.NDBC:WRBF1:1,2017-06-01T15:00:00Z,25.0720,-80.7350,1.0,2.6,100.0,-9999.0,'1111122,1111122,1111122' 
ENP,ioos.station.NOAA.NDBC:WRBF1:1,2017-06-01T16:00:00Z,25.0720,-80.7350,1.0,2.1,110.0,-9999.0,'1111122,1111122,1111122' 
ENP,ioos.station.NOAA.NDBC:WRBF1:1,2017-06-01T17:00:00Z,25.0720,-80.7350,1.0,1.5,120.0,-9999.0,'1111122,1111122,1111122' 
ENP,ioos.station.NOAA.NDBC:WRBF1:1,2017-06-01T18:00:00Z,25.0720,-80.7350,1.0,1.5,120.0,-9999.0,'1111122,1111122,1111122' 
ENP,ioos.station.NOAA.NDBC:WRBF1:1,2017-06-01T19:00:00Z,25.0720,-80.7350,1.0,1.5,130.0,-9999.0,'1111122,1111122,1111122' 
ENP,ioos.station.NOAA.NDBC:WRBF1:1,2017-06-01T20:00:00Z,25.0720,-80.7350,1.0,2.1,130.0,-9999.0,'1111122,1111122,1111122' 
ENP,ioos.station.NOAA.NDBC:WRBF1:1,2017-06-01T21:00:00Z,25.0720,-80.7350,1.0,1.5,130.0,-9999.0,'1111122,1111122,1111122' 
ENP,ioos.station.NOAA.NDBC:WRBF1:1,2017-06-01T22:00:00Z,25.0720,-80.7350,1.0,1.5,120.0,-9999.0,'1111122,1111122,1111122' 
ENP,ioos.station.NOAA.NDBC:WRBF1:1,2017-06-01T23:00:00Z,25.0720,-80.7350,1.0,2.1,100.0,-9999.0,'1111122,1111122,1111122' 
ENP,ioos.station.NOAA.NDBC:WRBF1:1,2017-06-02T00:00:00Z,25.0720,-80.7350,1.0,2.1,110.0,-9999.0,'1111122,1111122,1111122' 
ENP,ioos.station.NOAA.NDBC:WRBF1:1,2017-06-02T03:00:00Z,25.0720,-80.7350,1.0,3.6,80.0,-9999.0,'1111122,1111122,1111122' 
ENP,ioos.station.NOAA.NDBC:WRBF1:1,2017-06-02T06:00:00Z,25.0720,-80.7350,1.0,4.1,80.0,-9999.0,'1111122,1111122,1111122' 
ENP,ioos.station.NOAA.NDBC:WRBF1:1,2017-06-02T07:00:00Z,25.0720,-80.7350,1.0,3.6,90.0,-9999.0,'1111122,1111122,1111122' 
ENP,ioos.station.NOAA.NDBC:WRBF1:1,2017-06-02T08:00:00Z,25.0720,-80.7350,1.0,2.6,100.0,-9999.0,'1111122,1111122,1111122' 
ENP,ioos.station.NOAA.NDBC:WRBF1:1,2017-06-02T10:00:00Z,25.0720,-80.7350,1.0,2.1,130.0,-9999.0,'1111122,1111122,1111122' 
ENP,ioos.station.NOAA.NDBC:WRBF1:1,2017-06-02T11:00:00Z,25.0720,-80.7350,1.0,3.1,100.0,-9999.0,'1111122,1111122,1111122' 
ENP,ioos.station.NOAA.NDBC:WRBF1:1,2017-06-02T12:00:00Z,25.0720,-80.7350,1.0,2.1,100.0,-9999.0,'1111122,1111122,1111122' 
ENP,ioos.station.NOAA.NDBC:WRBF1:1,2017-06-02T13:00:00Z,25.0720,-80.7350,1.0,1.0,110.0,-9999.0,'1111122,1111122,1111122' 
ENP,ioos.station.NOAA.NDBC:WRBF1:1,2017-06-02T14:00:00Z,25.0720,-80.7350,1.0,0.5,100.0,-9999.0,'1111122,1111122,1111122' 
ENP,ioos.station.NOAA.NDBC:WRBF1:1,2017-06-02T15:00:00Z,25.0720,-80.7350,1.0,1.5,110.0,-9999.0,'1111122,1111122,1111122' 
ENP,ioos.station.NOAA.NDBC:WRBF1:1,2017-06-02T16:00:00Z,25.0720,-80.7350,1.0,1.5,150.0,-9999.0,'1111122,1111122,1111122' 
ENP,ioos.station.NOAA.NDBC:WRBF1:1,2017-06-02T17:00:00Z,25.0720,-80.7350,1.0,3.6,200.0,-9999.0,'1111122,1111122,1111122' 
ENP,ioos.station.NOAA.NDBC:WRBF1:1,2017-06-02T18:00:00Z,25.0720,-80.7350,1.0,2.1,190.0,-9999.0,'1111122,1111122,1111122' 
ENP,ioos.station.NOAA.NDBC:WRBF1:1,2017-06-02T19:00:00Z,25.0720,-80.7350,1.0,1.0,140.0,-9999.0,'1111122,1111122,1111122' 
ENP,ioos.station.NOAA.NDBC:WRBF1:1,2017-06-02T20:00:00Z,25.0720,-80.7350,1.0,1.0,80.0,-9999.0,'1111122,1111122,1111122' 
ENP,ioos.station.NOAA.NDBC:WRBF1:1,2017-06-02T21:00:00Z,25.0720,-80.7350,1.0,1.0,170.0,-9999.0,'1111122,1111122,1111122' 
ENP,ioos.station.NOAA.NDBC:WRBF1:1,2017-06-02T23:00:00Z,25.0720,-80.7350,1.0,0.5,10.0,-9999.0,'1111122,1111122,1111122' 
ENP,ioos.station.NOAA.NDBC:WRBF1:1,2017-06-03T00:00:00Z,25.0720,-80.7350,1.0,2.1,40.0,-9999.0,'1111122,1111122,1111122' 
ENP,ioos.station.NOAA.NDBC:WRBF1:1,2017-06-03T03:00:00Z,25.0720,-80.7350,1.0,5.7,20.0,-9999.0,'1111122,1111122,1111122' 
ENP,ioos.station.NOAA.NDBC:WRBF1:1,2017-06-03T06:00:00Z,25.0720,-80.7350,1.0,4.1,60.0,-9999.0,'1111122,1111122,1111122' 
ENP,ioos.station.NOAA.NDBC:WRBF1:1,2017-06-03T07:00:00Z,25.0720,-80.7350,1.0,3.6,70.0,-9999.0,'1111122,1111122,1111122' 
ENP,ioos.station.NOAA.NDBC:WRBF1:1,2017-06-03T08:00:00Z,25.0720,-80.7350,1.0,3.6,80.0,-9999.0,'1111122,1111122,1111122' 
ENP,ioos.station.NOAA.NDBC:WRBF1:1,2017-06-03T10:00:00Z,25.0720,-80.7350,1.0,2.1,100.0,-9999.0,'1111122,1111122,1111122' 
ENP,ioos.station.NOAA.NDBC:WRBF1:1,2017-06-03T11:00:00Z,25.0720,-80.7350,1.0,2.1,90.0,-9999.0,'1111122,1111122,1111122' 
ENP,ioos.station.NOAA.NDBC:WRBF1:1,2017-06-03T12:00:00Z,25.0720,-80.7350,1.0,2.1,90.0,-9999.0,'1111122,1111122,1111122' 
ENP,ioos.station.NOAA.NDBC:WRBF1:1,2017-06-03T13:00:00Z,25.0720,-80.7350,1.0,1.5,80.0,-9999.0,'1111122,1111122,1111122' 
ENP,ioos.station.NOAA.NDBC:WRBF1:1,2017-06-03T14:00:00Z,25.0720,-80.7350,1.0,1.0,140.0,-9999.0,'1111122,1111122,1111122' 
ENP,ioos.station.NOAA.NDBC:WRBF1:1,2017-06-03T15:00:00Z,25.0720,-80.7350,1.0,0.5,120.0,-9999.0,'1111122,1111122,1111122' 
ENP,ioos.station.NOAA.NDBC:WRBF1:1,2017-06-03T16:00:00Z,25.0720,-80.7350,1.0,1.5,150.0,-9999.0,'1111122,1111122,1111122' 
ENP,ioos.station.NOAA.NDBC:WRBF1:1,2017-06-03T17:00:00Z,25.0720,-80.7350,1.0,2.1,160.0,-9999.0,'1111122,1111122,1111122' 
ENP,ioos.station.NOAA.NDBC:WRBF1:1,2017-06-03T18:00:00Z,25.0720,-80.7350,1.0,3.6,180.0,-9999.0,'1111122,1111122,1111122' 
ENP,ioos.station.NOAA.NDBC:WRBF1:1,2017-06-03T19:00:00Z,25.0720,-80.7350,1.0,1.5,180.0,-9999.0,'1111122,1111122,1111122' 
ENP,ioos.station.NOAA.NDBC:WRBF1:1,2017-06-03T20:00:00Z,25.0720,-80.7350,1.0,1.0,210.0,-9999.0,'1111122,1111122,1111122' 
ENP,ioos.station.NOAA.NDBC:WRBF1:1,2017-06-03T21:00:00Z,25.0720,-80.7350,1.0,2.1,360.0,-9999.0,'1111122,1111122,1111122' 
ENP,ioos.station.NOAA.NDBC:WRBF1:1,2017-06-03T22:00:00Z,25.0720,-80.7350,1.0,6.2,20.0,-9999.0,'1111122,1111122,1111122' 
ENP,ioos.station.NOAA.NDBC:WRBF1:1,2017-06-03T23:00:00Z,25.0720,-80.7350,1.0,6.2,30.0,-9999.0,'1111122,1111122,1111122' 
ENP,ioos.station.NOAA.NDBC:WRBF1:1,2017-06-04T00:00:00Z,25.0720,-80.7350,1.0,4.6,30.0,-9999.0,'1111122,1111122,1111122' 
ENP,ioos.station.NOAA.NDBC:WRBF1:1,2017-06-04T03:00:00Z,25.0720,-80.7350,1.0,6.2,40.0,-9999.0,'1111122,1111122,1111122' 
ENP,ioos.station.NOAA.NDBC:WRBF1:1,2017-06-04T06:00:00Z,25.0720,-80.7350,1.0,3.1,80.0,-9999.0,'1111122,1111122,1111122' 
ENP,ioos.station.NOAA.NDBC:WRBF1:1,2017-06-04T07:00:00Z,25.0720,-80.7350,1.0,1.5,100.0,-9999.0,'1111122,1111122,1111122' 
ENP,ioos.station.NOAA.NDBC:WRBF1:1,2017-06-04T08:00:00Z,25.0720,-80.7350,1.0,1.0,110.0,-9999.0,'1111122,1111122,1111122' 
ENP,ioos.station.NOAA.NDBC:WRBF1:1,2017-06-04T10:00:00Z,25.0720,-80.7350,1.0,1.5,90.0,-9999.0,'1111122,1111122,1111122' 
ENP,ioos.station.NOAA.NDBC:WRBF1:1,2017-06-04T11:00:00Z,25.0720,-80.7350,1.0,1.5,90.0,-9999.0,'1111122,1111122,1111122' 
ENP,ioos.station.NOAA.NDBC:WRBF1:1,2017-06-04T12:00:00Z,25.0720,-80.7350,1.0,2.6,50.0,-9999.0,'1111122,1111122,1111122' 
ENP,ioos.station.NOAA.NDBC:WRBF1:1,2017-06-04T13:00:00Z,25.0720,-80.7350,1.0,1.5,10.0,-9999.0,'1111122,1111122,1111122' 
ENP,ioos.station.NOAA.NDBC:WRBF1:1,2017-06-04T14:00:00Z,25.0720,-80.7350,1.0,2.6,20.0,-9999.0,'1111122,1111122,1111122' 
ENP,ioos.station.NOAA.NDBC:WRBF1:1,2017-06-04T16:00:00Z,25.0720,-80.7350,1.0,1.5,50.0,-9999.0,'1111122,1111122,1111122' 
ENP,ioos.station.NOAA.NDBC:WRBF1:1,2017-06-04T17:00:00Z,25.0720,-80.7350,1.0,1.5,80.0,-9999.0,'1111122,1111122,1111122' 
ENP,ioos.station.NOAA.NDBC:WRBF1:1,2017-06-04T18:00:00Z,25.0720,-80.7350,1.0,2.1,110.0,-9999.0,'1111122,1111122,1111122' 
ENP,ioos.station.NOAA.NDBC:WRBF1:1,2017-06-04T19:00:00Z,25.0720,-80.7350,1.0,3.1,70.0,-9999.0,'1111122,1111122,1111122' 
ENP,ioos.station.NOAA.NDBC:WRBF1:1,2017-06-04T20:00:00Z,25.0720,-80.7350,1.0,3.1,60.0,-9999.0,'1111122,1111122,1111122' 
ENP,ioos.station.NOAA.NDBC:WRBF1:1,2017-06-04T21:00:00Z,25.0720,-80.7350,1.0,3.6,70.0,-9999.0,'1111122,1111122,1111122' 
ENP,ioos.station.NOAA.NDBC:WRBF1:1,2017-06-04T22:00:00Z,25.0720,-80.7350,1.0,1.5,80.0,-9999.0,'1111122,1111122,1111122' 
ENP,ioos.station.NOAA.NDBC:WRBF1:1,2017-06-04T23:00:00Z,25.0720,-80.7350,1.0,3.6,80.0,-9999.0,'1111122,1111122,1111122' 
ENP,ioos.station.NOAA.NDBC:WRBF1:1,2017-06-05T00:00:00Z,25.0720,-80.7350,1.0,3.6,80.0,-9999.0,'1111122,1111122,1111122' 
ENP,ioos.station.NOAA.NDBC:WRBF1:1,2017-06-05T03:00:00Z,25.0720,-80.7350,1.0,4.6,80.0,-9999.0,'1111122,1111122,1111122' 
ENP,ioos.station.NOAA.NDBC:WRBF1:1,2017-06-05T06:00:00Z,25.0720,-80.7350,1.0,2.6,100.0,-9999.0,'1111122,1111122,1111122' 
ENP,ioos.station.NOAA.NDBC:WRBF1:1,2017-06-05T07:00:00Z,25.0720,-80.7350,1.0,2.1,110.0,-9999.0,'1111122,1111122,1111122' 
ENP,ioos.station.NOAA.NDBC:WRBF1:1,2017-06-05T08:00:00Z,25.0720,-80.7350,1.0,2.1,120.0,-9999.0,'1111122,1111122,1111122' 
ENP,ioos.station.NOAA.NDBC:WRBF1:1,2017-06-05T10:00:00Z,25.0720,-80.7350,1.0,2.1,120.0,-9999.0,'1111122,1111122,1111122' 
ENP,ioos.station.NOAA.NDBC:WRBF1:1,2017-06-05T11:00:00Z,25.0720,-80.7350,1.0,1.5,130.0,-9999.0,'1111122,1111122,1111122' 
ENP,ioos.station.NOAA.NDBC:WRBF1:1,2017-06-05T12:00:00Z,25.0720,-80.7350,1.0,2.1,150.0,-9999.0,'1111122,1111122,1111122' 
ENP,ioos.station.NOAA.NDBC:WRBF1:1,2017-06-05T13:00:00Z,25.0720,-80.7350,1.0,1.0,160.0,-9999.0,'1111122,1111122,1111122' 
ENP,ioos.station.NOAA.NDBC:WRBF1:1,2017-06-05T14:00:00Z,25.0720,-80.7350,1.0,1.5,160.0,-9999.0,'1111122,1111122,1111122' 
ENP,ioos.station.NOAA.NDBC:WRBF1:1,2017-06-05T15:00:00Z,25.0720,-80.7350,1.0,3.1,160.0,-9999.0,'1111122,1111122,1111122' 
ENP,ioos.station.NOAA.NDBC:WRBF1:1,2017-06-05T16:00:00Z,25.0720,-80.7350,1.0,2.1,160.0,-9999.0,'1111122,1111122,1111122' 
ENP,ioos.station.NOAA.NDBC:WRBF1:1,2017-06-05T17:00:00Z,25.0720,-80.7350,1.0,1.5,140.0,-9999.0,'1111122,1111122,1111122' 
ENP,ioos.station.NOAA.NDBC:WRBF1:1,2017-06-05T18:00:00Z,25.0720,-80.7350,1.0,2.1,140.0,-9999.0,'1111122,1111122,1111122' 
ENP,ioos.station.NOAA.NDBC:WRBF1:1,2017-06-05T19:00:00Z,25.0720,-80.7350,1.0,1.0,130.0,-9999.0,'1111122,1111122,1111122' 
ENP,ioos.station.NOAA.NDBC:WRBF1:1,2017-06-05T20:00:00Z,25.0720,-80.7350,1.0,0.5,110.0,-9999.0,'1111122,1111122,1111122' 
ENP,ioos.station.NOAA.NDBC:WRBF1:1,2017-06-05T21:00:00Z,25.0720,-80.7350,1.0,0.5,130.0,-9999.0,'1111122,1111122,1111122' 
ENP,ioos.station.NOAA.NDBC:WRBF1:1,2017-06-05T22:00:00Z,25.0720,-80.7350,1.0,1.0,160.0,-9999.0,'1111122,1111122,1111122' 
ENP,ioos.station.NOAA.NDBC:WRBF1:1,2017-06-05T23:00:00Z,25.0720,-80.7350,1.0,1.5,120.0,-9999.0,'1111122,1111122,1111122' 
ENP,ioos.station.NOAA.NDBC:WRBF1:1,2017-06-06T00:00:00Z,25.0720,-80.7350,1.0,3.1,160.0,-9999.0,'1111122,1111122,1111122' 
ENP,ioos.station.NOAA.NDBC:WRBF1:1,2017-06-06T06:00:00Z,25.0720,-80.7350,1.0,1.5,130.0,-9999.0,'1111122,1111122,1111122' 
ENP,ioos.station.NOAA.NDBC:WRBF1:1,2017-06-06T07:00:00Z,25.0720,-80.7350,1.0,2.1,140.0,-9999.0,'1111122,1111122,1111122' 
ENP,ioos.station.NOAA.NDBC:WRBF1:1,2017-06-06T08:00:00Z,25.0720,-80.7350,1.0,2.6,160.0,-9999.0,'1111122,1111122,1111122' 
ENP,ioos.station.NOAA.NDBC:WRBF1:1,2017-06-06T10:00:00Z,25.0720,-80.7350,1.0,3.1,170.0,-9999.0,'1111122,1111122,1111122' 
ENP,ioos.station.NOAA.NDBC:WRBF1:1,2017-06-06T11:00:00Z,25.0720,-80.7350,1.0,3.1,160.0,-9999.0,'1111122,1111122,1111122' 
ENP,ioos.station.NOAA.NDBC:WRBF1:1,2017-06-06T12:00:00Z,25.0720,-80.7350,1.0,3.1,170.0,-9999.0,'1111122,1111122,1111122' 
ENP,ioos.station.NOAA.NDBC:WRBF1:1,2017-06-06T13:00:00Z,25.0720,-80.7350,1.0,1.5,170.0,-9999.0,'1111122,1111122,1111122' 
ENP,ioos.station.NOAA.NDBC:WRBF1:1,2017-06-06T14:00:00Z,25.0720,-80.7350,1.0,1.5,170.0,-9999.0,'1111122,1111122,1111122' 
ENP,ioos.station.NOAA.NDBC:WRBF1:1,2017-06-06T15:00:00Z,25.0720,-80.7350,1.0,2.1,160.0,-9999.0,'1111122,1111122,1111122' 
ENP,ioos.station.NOAA.NDBC:WRBF1:1,2017-06-06T16:00:00Z,25.0720,-80.7350,1.0,2.6,160.0,-9999.0,'1111122,1111122,1111122' 
ENP,ioos.station.NOAA.NDBC:WRBF1:1,2017-06-06T17:00:00Z,25.0720,-80.7350,1.0,2.1,170.0,-9999.0,'1111122,1111122,1111122' 
ENP,ioos.station.NOAA.NDBC:WRBF1:1,2017-06-06T18:00:00Z,25.0720,-80.7350,1.0,2.1,180.0,-9999.0,'1111122,1111122,1111122' 
ENP,ioos.station.NOAA.NDBC:WRBF1:1,2017-06-06T19:00:00Z,25.0720,-80.7350,1.0,4.1,170.0,-9999.0,'1111122,1111122,1111122' 
ENP,ioos.station.NOAA.NDBC:WRBF1:1,2017-06-06T20:00:00Z,25.0720,-80.7350,1.0,1.0,170.0,-9999.0,'1111122,1111122,1111122' 
ENP,ioos.station.NOAA.NDBC:WRBF1:1,2017-06-06T21:00:00Z,25.0720,-80.7350,1.0,3.6,170.0,-9999.0,'1111122,1111122,1111122' 
ENP,ioos.station.NOAA.NDBC:WRBF1:1,2017-06-06T22:00:00Z,25.0720,-80.7350,1.0,4.6,170.0,-9999.0,'1111122,1111122,1111122' 
ENP,ioos.station.NOAA.NDBC:WRBF1:1,2017-06-06T23:00:00Z,25.0720,-80.7350,1.0,4.6,170.0,-9999.0,'1111122,1111122,1111122' 
ENP,ioos.station.NOAA.NDBC:WRBF1:1,2017-06-07T00:00:00Z,25.0720,-80.7350,1.0,4.1,170.0,-9999.0,'1111122,1111122,1111122' 
ENP,ioos.station.NOAA.NDBC:WRBF1:1,2017-06-07T03:00:00Z,25.0720,-80.7350,1.0,4.6,190.0,-9999.0,'1111122,1111122,1111122' 
ENP,ioos.station.NOAA.NDBC:WRBF1:1,2017-06-07T06:00:00Z,25.0720,-80.7350,1.0,4.6,180.0,-9999.0,'1111122,1111122,1111122' 
ENP,ioos.station.NOAA.NDBC:WRBF1:1,2017-06-07T07:00:00Z,25.0720,-80.7350,1.0,5.1,180.0,-9999.0,'1111122,1111122,1111122' 
ENP,ioos.station.NOAA.NDBC:WRBF1:1,2017-06-07T08:00:00Z,25.0720,-80.7350,1.0,4.6,180.0,-9999.0,'1111122,1111122,1111122' 
ENP,ioos.station.NOAA.NDBC:WRBF1:1,2017-06-07T10:00:00Z,25.0720,-80.7350,1.0,6.2,280.0,-9999.0,'1111122,1111122,1111122' 
ENP,ioos.station.NOAA.NDBC:WRBF1:1,2017-06-07T11:00:00Z,25.0720,-80.7350,1.0,8.8,290.0,-9999.0,'1111122,1111122,1111122' 
ENP,ioos.station.NOAA.NDBC:WRBF1:1,2017-06-07T12:00:00Z,25.0720,-80.7350,1.0,4.1,300.0,-9999.0,'1111122,1111122,1111122' 
ENP,ioos.station.NOAA.NDBC:WRBF1:1,2017-06-07T13:00:00Z,25.0720,-80.7350,1.0,1.5,50.0,-9999.0,'1111122,1111122,1111122' 
ENP,ioos.station.NOAA.NDBC:WRBF1:1,2017-06-07T14:00:00Z,25.0720,-80.7350,1.0,2.6,220.0,-9999.0,'1111122,1111122,1111122' 
ENP,ioos.station.NOAA.NDBC:WRBF1:1,2017-06-07T15:00:00Z,25.0720,-80.7350,1.0,1.0,300.0,-9999.0,'1111122,1111122,1111122' 
ENP,ioos.station.NOAA.NDBC:WRBF1:1,2017-06-07T16:00:00Z,25.0720,-80.7350,1.0,1.0,120.0,-9999.0,'1111122,1111122,1111122' 
ENP,ioos.station.NOAA.NDBC:WRBF1:1,2017-06-07T17:00:00Z,25.0720,-80.7350,1.0,1.0,120.0,-9999.0,'1111122,1111122,1111122' 
ENP,ioos.station.NOAA.NDBC:WRBF1:1,2017-06-07T18:00:00Z,25.0720,-80.7350,1.0,1.0,120.0,-9999.0,'1111122,1111122,1111122' 
ENP,ioos.station.NOAA.NDBC:WRBF1:1,2017-06-07T19:00:00Z,25.0720,-80.7350,1.0,1.0,110.0,-9999.0,'1111122,1111122,1111122' 
ENP,ioos.station.NOAA.NDBC:WRBF1:1,2017-06-07T20:00:00Z,25.0720,-80.7350,1.0,1.0,130.0,-9999.0,'1111122,1111122,1111122' 
ENP,ioos.station.NOAA.NDBC:WRBF1:1,2017-06-07T21:00:00Z,25.0720,-80.7350,1.0,2.6,170.0,-9999.0,'1111122,1111122,1111122' 
ENP,ioos.station.NOAA.NDBC:WRBF1:1,2017-06-07T22:00:00Z,25.0720,-80.7350,1.0,2.6,160.0,-9999.0,'1111122,1111122,1111122' 
ENP,ioos.station.NOAA.NDBC:WRBF1:1,2017-06-07T23:00:00Z,25.0720,-80.7350,1.0,3.1,270.0,-9999.0,'1111122,1111122,1111122' 
ENP,ioos.station.NOAA.NDBC:WRBF1:1,2017-06-08T00:00:00Z,25.0720,-80.7350,1.0,2.1,260.0,-9999.0,'1111122,1111122,1111122' 
ENP,ioos.station.NOAA.NDBC:WRBF1:1,2017-06-08T03:00:00Z,25.0720,-80.7350,1.0,1.5,100.0,-9999.0,'1111122,1111122,1111122' 
ENP,ioos.station.NOAA.NDBC:WRBF1:1,2017-06-08T06:00:00Z,25.0720,-80.7350,1.0,4.1,170.0,-9999.0,'1111122,1111122,1111122' 
ENP,ioos.station.NOAA.NDBC:WRBF1:1,2017-06-08T07:00:00Z,25.0720,-80.7350,1.0,4.6,170.0,-9999.0,'1111122,1111122,1111122' 
ENP,ioos.station.NOAA.NDBC:WRBF1:1,2017-06-08T08:00:00Z,25.0720,-80.7350,1.0,4.6,180.0,-9999.0,'1111122,1111122,1111122' 
ENP,ioos.station.NOAA.NDBC:WRBF1:1,2017-06-08T10:00:00Z,25.0720,-80.7350,1.0,5.1,180.0,-9999.0,'1111122,1111122,1111122' 
ENP,ioos.station.NOAA.NDBC:WRBF1:1,2017-06-08T11:00:00Z,25.0720,-80.7350,1.0,5.1,190.0,-9999.0,'1111122,1111122,1111122' 
ENP,ioos.station.NOAA.NDBC:WRBF1:1,2017-06-08T12:00:00Z,25.0720,-80.7350,1.0,4.1,190.0,-9999.0,'1111122,1111122,1111122' 
ENP,ioos.station.NOAA.NDBC:WRBF1:1,2017-06-08T13:00:00Z,25.0720,-80.7350,1.0,3.6,190.0,-9999.0,'1111122,1111122,1111122' 
ENP,ioos.station.NOAA.NDBC:WRBF1:1,2017-06-08T14:00:00Z,25.0720,-80.7350,1.0,4.6,190.0,-9999.0,'1111122,1111122,1111122' 
ENP,ioos.station.NOAA.NDBC:WRBF1:1,2017-06-08T15:00:00Z,25.0720,-80.7350,1.0,8.8,200.0,-9999.0,'1111122,1111122,1111122' 
ENP,ioos.station.NOAA.NDBC:WRBF1:1,2017-06-08T16:00:00Z,25.0720,-80.7350,1.0,4.6,200.0,-9999.0,'1111122,1111122,1111122' 
ENP,ioos.station.NOAA.NDBC:WRBF1:1,2017-06-08T17:00:00Z,25.0720,-80.7350,1.0,5.7,200.0,-9999.0,'1111122,1111122,1111122' 
ENP,ioos.station.NOAA.NDBC:WRBF1:1,2017-06-08T18:00:00Z,25.0720,-80.7350,1.0,6.7,190.0,-9999.0,'1111122,1111122,1111122' 
ENP,ioos.station.NOAA.NDBC:WRBF1:1,2017-06-08T19:00:00Z,25.0720,-80.7350,1.0,7.2,190.0,-9999.0,'1111122,1111122,1111122' 
ENP,ioos.station.NOAA.NDBC:WRBF1:1,2017-06-08T20:00:00Z,25.0720,-80.7350,1.0,6.2,200.0,-9999.0,'1111122,1111122,1111122' 
ENP,ioos.station.NOAA.NDBC:WRBF1:1,2017-06-08T21:00:00Z,25.0720,-80.7350,1.0,2.6,200.0,-9999.0,'1111122,1111122,1111122' 
ENP,ioos.station.NOAA.NDBC:WRBF1:1,2017-06-08T22:00:00Z,25.0720,-80.7350,1.0,4.1,200.0,-9999.0,'1111122,1111122,1111122' 
ENP,ioos.station.NOAA.NDBC:WRBF1:1,2017-06-08T23:00:00Z,25.0720,-80.7350,1.0,5.1,210.0,-9999.0,'1111122,1111122,1111122' 
ENP,ioos.station.NOAA.NDBC:WRBF1:1,2017-06-09T00:00:00Z,25.0720,-80.7350,1.0,5.1,210.0,-9999.0,'1111122,1111122,1111122' 
ENP,ioos.station.NOAA.NDBC:WRBF1:1,2017-06-09T03:00:00Z,25.0720,-80.7350,1.0,6.7,210.0,-9999.0,'1111122,1111122,1111122' 
ENP,ioos.station.NOAA.NDBC:WRBF1:1,2017-06-09T06:00:00Z,25.0720,-80.7350,1.0,6.2,200.0,-9999.0,'1111122,1111122,1111122' 
ENP,ioos.station.NOAA.NDBC:WRBF1:1,2017-06-09T07:00:00Z,25.0720,-80.7350,1.0,5.7,210.0,-9999.0,'1111122,1111122,1111122' 
ENP,ioos.station.NOAA.NDBC:WRBF1:1,2017-06-09T08:00:00Z,25.0720,-80.7350,1.0,5.7,200.0,-9999.0,'1111122,1111122,1111122' 
ENP,ioos.station.NOAA.NDBC:WRBF1:1,2017-06-09T10:00:00Z,25.0720,-80.7350,1.0,5.7,210.0,-9999.0,'1111122,1111122,1111122' 
ENP,ioos.station.NOAA.NDBC:WRBF1:1,2017-06-09T11:00:00Z,25.0720,-80.7350,1.0,5.7,220.0,-9999.0,'1111122,1111122,1111122' 
ENP,ioos.station.NOAA.NDBC:WRBF1:1,2017-06-09T12:00:00Z,25.0720,-80.7350,1.0,4.6,220.0,-9999.0,'1111122,1111122,1111122' 
ENP,ioos.station.NOAA.NDBC:WRBF1:1,2017-06-09T13:00:00Z,25.0720,-80.7350,1.0,2.1,240.0,-9999.0,'1111122,1111122,1111122' 
ENP,ioos.station.NOAA.NDBC:WRBF1:1,2017-06-09T14:00:00Z,25.0720,-80.7350,1.0,2.1,220.0,-9999.0,'1111122,1111122,1111122' 
ENP,ioos.station.NOAA.NDBC:WRBF1:1,2017-06-09T15:00:00Z,25.0720,-80.7350,1.0,2.1,210.0,-9999.0,'1111122,1111122,1111122' 
ENP,ioos.station.NOAA.NDBC:WRBF1:1,2017-06-09T16:00:00Z,25.0720,-80.7350,1.0,2.1,210.0,-9999.0,'1111122,1111122,1111122' 
ENP,ioos.station.NOAA.NDBC:WRBF1:1,2017-06-09T17:00:00Z,25.0720,-80.7350,1.0,4.1,210.0,-9999.0,'1111122,1111122,1111122' 
ENP,ioos.station.NOAA.NDBC:WRBF1:1,2017-06-09T18:00:00Z,25.0720,-80.7350,1.0,2.1,210.0,-9999.0,'1111122,1111122,1111122' 
ENP,ioos.station.NOAA.NDBC:WRBF1:1,2017-06-09T19:00:00Z,25.0720,-80.7350,1.0,2.6,230.0,-9999.0,'1111122,1111122,1111122' 
ENP,ioos.station.NOAA.NDBC:WRBF1:1,2017-06-09T21:00:00Z,25.0720,-80.7350,1.0,1.0,210.0,-9999.0,'1111122,1111122,1111122' 
ENP,ioos.station.NOAA.NDBC:WRBF1:1,2017-06-09T22:00:00Z,25.0720,-80.7350,1.0,3.6,210.0,-9999.0,'1111122,1111122,1111122' 
ENP,ioos.station.NOAA.NDBC:WRBF1:1,2017-06-09T23:00:00Z,25.0720,-80.7350,1.0,4.6,210.0,-9999.0,'1111122,1111122,1111122' 
ENP,ioos.station.NOAA.NDBC:WRBF1:1,2017-06-10T00:00:00Z,25.0720,-80.7350,1.0,6.2,200.0,-9999.0,'1111122,1111122,1111122' 
ENP,ioos.station.NOAA.NDBC:WRBF1:1,2017-06-10T03:00:00Z,25.0720,-80.7350,1.0,2.1,210.0,-9999.0,'1111122,1111122,1111122' 
ENP,ioos.station.NOAA.NDBC:WRBF1:1,2017-06-10T06:00:00Z,25.0720,-80.7350,1.0,1.0,130.0,-9999.0,'1111122,1111122,1111122' 
ENP,ioos.station.NOAA.NDBC:WRBF1:1,2017-06-10T07:00:00Z,25.0720,-80.7350,1.0,1.0,150.0,-9999.0,'1111122,1111122,1111122' 
ENP,ioos.station.NOAA.NDBC:WRBF1:1,2017-06-10T08:00:00Z,25.0720,-80.7350,1.0,1.0,120.0,-9999.0,'1111122,1111122,1111122' 
ENP,ioos.station.NOAA.NDBC:WRBF1:1,2017-06-10T10:00:00Z,25.0720,-80.7350,1.0,1.0,100.0,-9999.0,'1111122,1111122,1111122' 
ENP,ioos.station.NOAA.NDBC:WRBF1:1,2017-06-10T11:00:00Z,25.0720,-80.7350,1.0,1.5,90.0,-9999.0,'1111122,1111122,1111122' 
ENP,ioos.station.NOAA.NDBC:WRBF1:1,2017-06-10T12:00:00Z,25.0720,-80.7350,1.0,1.5,90.0,-9999.0,'1111122,1111122,1111122' 
ENP,ioos.station.NOAA.NDBC:WRBF1:1,2017-06-10T14:00:00Z,25.0720,-80.7350,1.0,2.1,80.0,-9999.0,'1111122,1111122,1111122' 
ENP,ioos.station.NOAA.NDBC:WRBF1:1,2017-06-10T15:00:00Z,25.0720,-80.7350,1.0,0.5,110.0,-9999.0,'1111122,1111122,1111122' 
ENP,ioos.station.NOAA.NDBC:WRBF1:1,2017-06-10T18:00:00Z,25.0720,-80.7350,1.0,2.1,160.0,-9999.0,'1111122,1111122,1111122' 
ENP,ioos.station.NOAA.NDBC:WRBF1:1,2017-06-10T21:00:00Z,25.0720,-80.7350,1.0,1.0,90.0,-9999.0,'1111122,1111122,1111122' 
ENP,ioos.station.NOAA.NDBC:WRBF1:1,2017-06-10T22:00:00Z,25.0720,-80.7350,1.0,1.5,70.0,-9999.0,'1111122,1111122,1111122' 
ENP,ioos.station.NOAA.NDBC:WRBF1:1,2017-06-10T23:00:00Z,25.0720,-80.7350,1.0,2.1,80.0,-9999.0,'1111122,1111122,1111122' 
ENP,ioos.station.NOAA.NDBC:WRBF1:1,2017-06-11T00:00:00Z,25.0720,-80.7350,1.0,2.6,80.0,-9999.0,'1111122,1111122,1111122' 
ENP,ioos.station.NOAA.NDBC:WRBF1:1,2017-06-11T03:00:00Z,25.0720,-80.7350,1.0,3.6,80.0,-9999.0,'1111122,1111122,1111122' 
ENP,ioos.station.NOAA.NDBC:WRBF1:1,2017-06-11T06:00:00Z,25.0720,-80.7350,1.0,5.1,80.0,-9999.0,'1111122,1111122,1111122' 
ENP,ioos.station.NOAA.NDBC:WRBF1:1,2017-06-11T07:00:00Z,25.0720,-80.7350,1.0,4.6,90.0,-9999.0,'1111122,1111122,1111122' 
ENP,ioos.station.NOAA.NDBC:WRBF1:1,2017-06-11T08:00:00Z,25.0720,-80.7350,1.0,3.1,100.0,-9999.0,'1111122,1111122,1111122' 
ENP,ioos.station.NOAA.NDBC:WRBF1:1,2017-06-11T10:00:00Z,25.0720,-80.7350,1.0,2.6,100.0,-9999.0,'1111122,1111122,1111122' 
ENP,ioos.station.NOAA.NDBC:WRBF1:1,2017-06-11T11:00:00Z,25.0720,-80.7350,1.0,3.1,90.0,-9999.0,'1111122,1111122,1111122' 
ENP,ioos.station.NOAA.NDBC:WRBF1:1,2017-06-11T12:00:00Z,25.0720,-80.7350,1.0,2.1,90.0,-9999.0,'1111122,1111122,1111122' 
ENP,ioos.station.NOAA.NDBC:WRBF1:1,2017-06-11T13:00:00Z,25.0720,-80.7350,1.0,1.5,80.0,-9999.0,'1111122,1111122,1111122' 
ENP,ioos.station.NOAA.NDBC:WRBF1:1,2017-06-11T14:00:00Z,25.0720,-80.7350,1.0,1.5,70.0,-9999.0,'1111122,1111122,1111122' 
ENP,ioos.station.NOAA.NDBC:WRBF1:1,2017-06-11T15:00:00Z,25.0720,-80.7350,1.0,1.0,70.0,-9999.0,'1111122,1111122,1111122' 
ENP,ioos.station.NOAA.NDBC:WRBF1:1,2017-06-11T16:00:00Z,25.0720,-80.7350,1.0,4.1,60.0,-9999.0,'1111122,1111122,1111122' 
ENP,ioos.station.NOAA.NDBC:WRBF1:1,2017-06-11T17:00:00Z,25.0720,-80.7350,1.0,0.5,70.0,-9999.0,'1111122,1111122,1111122' 
ENP,ioos.station.NOAA.NDBC:WRBF1:1,2017-06-11T19:00:00Z,25.0720,-80.7350,1.0,1.0,60.0,-9999.0,'1111122,1111122,1111122' 
ENP,ioos.station.NOAA.NDBC:WRBF1:1,2017-06-11T20:00:00Z,25.0720,-80.7350,1.0,3.6,60.0,-9999.0,'1111122,1111122,1111122' 